This demonstration page uses our WeatherBlox Daily Observations layout. Learn more.

Left ArrowRight Arrow

38.83388, -104.82136

Hourly Observations for December 6, 2022

Temp ( °F °C ) Dew Point ( °F °C ) Humidity (%) Winds ( mph kmh ) Pressure ( in mb ) Visibility ( mi km ) Precip ( " mm )
12:55 am 00:55 Clear 33 0.6 22 -5.4 64 64 SSE 9 15 28.73 973 10 16 0.00 0.00
1:55 am 01:55 Clear 37 2.5 18 -7.7 47 47 SSE 16 26 28.93 980 10 16 0.00 0.00
2:55 am 02:55 Clear 30 -1.2 20 -6.9 65 65 Calm 28.83 976 10 16 0.00 0.00
3:55 am 03:55 Clear 36 2.4 13 -10.5 38 38 Calm 28.89 978 10 16 0.00 0.00
4:55 am 04:55 Clear 37 2.6 16 -9 42 42 SE 5 7 28.84 977 10 16 0.00 0.00
5:55 am 05:55 Clear 40 4.4 18 -8 40 40 SE 3 6 28.98 981 10 16 0.00 0.00
6:55 am 06:55 Clear 35 1.8 18 -7.8 49 49 Calm 28.92 979 10 16 0.00 0.00
7:55 am 07:55 Sunny 39 3.7 19 -7.4 44 44 N 6 9 29.05 984 10 16 0.00 0.00
8:55 am 08:55 Sunny 45 7 19 -7.1 36 36 SSE 17 28 29.20 989 10 16 0.00 0.00
9:55 am 09:55 Sunny 44 6.6 20 -6.7 38 38 SSE 9 15 29.20 989 10 16 0.00 0.00
10:55 am 10:55 Mostly Sunny 39 3.7 22 -5.8 50 50 SSE 7 11 29.15 987 10 16 0.00 0.00
11:55 am 11:55 Sunny 36 2.1 21 -6 55 55 SE 6 9 29.05 984 10 16 0.00 0.00
12:55 pm 12:55 Partly Cloudy 39 3.9 22 -5.8 49 49 SSE 7 11 29.11 986 10 16 0.00 0.00
1:55 pm 13:55 Mostly Cloudy 42 5.4 21 -6.2 43 43 SE 5 7 29.23 990 10 16 0.00 0.00
2:55 pm 14:55 Cloudy 40 4.6 21 -6.3 45 45 SSE 6 9 29.18 988 10 16 0.00 0.00
3:55 pm 15:55 Cloudy 40 4.4 20 -6.5 45 45 S 7 11 29.14 987 10 16 0.00 0.00
4:31 pm 16:31 Cloudy with Light Rain 39 4 21 -6 48 48 N 5 7 29.12 986 10 16 0.00 0.00
4:41 pm 16:41 Mostly Cloudy 39 4 21 -6 48 48 NNW 3 6 29.11 986 10 16 0.00 0.00
4:55 pm 16:55 Mostly Cloudy 38 3.6 21 -6.1 49 49 Calm 29.10 986 10 16 0.01 0.13
5:26 pm 17:26 Cloudy with Light Rain 39 4 21 -6 48 48 NW 3 6 29.13 986 10 16 0.00 0.00
5:36 pm 17:36 Cloudy 39 4 21 -6 48 48 NW 3 6 29.12 986 10 16 0.00 0.00
5:55 pm 17:55 Partly Cloudy 38 3.1 22 -5.6 53 53 WNW 3 6 29.08 985 10 16 0.01 0.13
6:37 pm 18:37 Cloudy with Light Rain 37 3 25 -4 60 60 WNW 5 7 29.13 987 10 16 0.00 0.00
6:47 pm 18:47 Cloudy 37 3 23 -5 56 56 WNW 5 7 29.15 987 10 16 0.00 0.00
6:55 pm 18:55 Cloudy with Light Rain 38 3.4 25 -4.1 58 58 NW 5 7 29.14 987 10 16 0.01 0.13
7:00 pm 19:00 Cloudy 39 4 27 -3 60 60 NNW 6 9 29.14 987 10 16 0.00 0.00
7:55 pm 19:55 Cloudy 39 3.9 26 -3.6 58 58 Calm 29.14 987 10 16 0.01 0.13
8:55 pm 20:55 Clear 38 3.3 22 -5.6 52 52 WSW 3 6 29.07 984 10 16 0.00 0.00
9:55 pm 21:55 Clear 37 2.5 20 -6.6 51 51 NNE 3 6 29.11 986 10 16 0.00 0.00
10:55 pm 22:55 Clear 37 2.9 19 -7 48 48 NW 6 9 29.13 987 10 16 0.00 0.00
11:55 pm 23:55 Clear 35 1.7 18 -7.6 50 50 NW 3 6 29.10 985 10 16 0.00 0.00

Powered by AerisWeather